ITY5RJ LIRF-LPPT

Flight info

Callsign ITY5RJ
Flight time 2h 45m
Altitude 35000
Route ESINO DCT ABIDU DCT EPIKU/N0448F360 DCT GINOX DCT KIFMI DCT ELVOP DCT MUREN/N0447F370 M601 BCN DCT ANTON DCT XIKEN DCT OSLAP DCT SALAS DCT RAMON DCT NEXAS DCT DISVU DCT ADUXO N975 PALIO DCT AKOKI DCT GOTOR DCT TLD DCT NATPA DCT MELON DCT CCS DCT ELVAR DCT UPULO
Aircraft A320/M-SDE3FGHIRWY/LB1

Departure

Time 2026-05-07 16:45
Airport Rome–Fiumicino Leonardo da Vinci International Airport (LIRF)

Arrival

Time 2026-05-07 19:30
Airport Lisbon Humberto Delgado Airport (LPPT)
Time Latitude Longitude Altitude Speed Heading
2026-05-07 16:13 41.79727 12.25643 15 ft 0 kts 296°
2026-05-07 16:35 41.79717 12.25668 15 ft 4 kts 308°
2026-05-07 16:35 41.79698 12.25690 16 ft 4 kts 347°
2026-05-07 16:36 41.79682 12.25690 15 ft 0 kts 25°
2026-05-07 16:38 41.79728 12.25719 15 ft 13 kts 25°
2026-05-07 16:38 41.79805 12.25767 16 ft 10 kts 26°
2026-05-07 16:38 41.79862 12.25812 15 ft 9 kts 31°
2026-05-07 16:39 41.79911 12.25847 15 ft 7 kts 24°
2026-05-07 16:39 41.79955 12.25873 16 ft 8 kts 25°
2026-05-07 16:39 41.80010 12.25907 15 ft 9 kts 24°
2026-05-07 16:39 41.80080 12.25950 16 ft 13 kts 25°
2026-05-07 16:40 41.80165 12.26002 15 ft 13 kts 25°
2026-05-07 16:40 41.80242 12.26051 15 ft 11 kts 25°
2026-05-07 16:40 41.80323 12.26102 15 ft 14 kts 25°
2026-05-07 16:40 41.80420 12.26161 15 ft 15 kts 24°
2026-05-07 16:41 41.80516 12.26222 15 ft 15 kts 46°
2026-05-07 16:41 41.80558 12.26346 15 ft 15 kts 70°
2026-05-07 16:41 41.80603 12.26508 15 ft 21 kts 70°
2026-05-07 16:41 41.80651 12.26683 15 ft 19 kts 69°
2026-05-07 16:42 41.80695 12.26839 17 ft 17 kts 69°
2026-05-07 16:42 41.80734 12.26978 15 ft 15 kts 69°
2026-05-07 16:42 41.80765 12.27088 15 ft 11 kts 69°
2026-05-07 16:42 41.80816 12.27143 15 ft 9 kts 355°
2026-05-07 16:43 41.80877 12.27110 15 ft 11 kts 338°
2026-05-07 16:43 41.80954 12.27073 16 ft 12 kts 340°
2026-05-07 16:43 41.80989 12.27024 15 ft 8 kts 264°
2026-05-07 16:43 41.80967 12.26949 13 ft 11 kts 250°
2026-05-07 16:44 41.80910 12.26742 13 ft 51 kts 249°
2026-05-07 16:44 41.80706 12.26013 18 ft 114 kts 249°
2026-05-07 16:44 41.80365 12.24796 28 ft 162 kts 248°
2026-05-07 16:44 41.79992 12.23362 586 ft 160 kts 253°
2026-05-07 16:45 41.79647 12.21911 1176 ft 167 kts 255°
2026-05-07 16:45 41.79396 12.20301 1530 ft 187 kts 268°
2026-05-07 16:45 41.79352 12.18474 2014 ft 205 kts 269°
2026-05-07 16:45 41.79135 12.16512 2361 ft 225 kts 248°
2026-05-07 16:46 41.78203 12.14762 2656 ft 248 kts 220°
2026-05-07 16:46 41.76768 12.13320 3156 ft 264 kts 214°
2026-05-07 16:46 41.75216 12.11952 3947 ft 268 kts 212°
2026-05-07 16:46 41.73629 12.10603 4804 ft 271 kts 211°
2026-05-07 16:47 41.72029 12.09242 5644 ft 274 kts 212°
2026-05-07 16:47 41.70419 12.07850 6461 ft 277 kts 212°
2026-05-07 16:47 41.68803 12.06434 7247 ft 279 kts 213°
2026-05-07 16:47 41.67182 12.05001 8099 ft 279 kts 213°
2026-05-07 16:48 41.65571 12.03566 8943 ft 279 kts 214°
2026-05-07 16:48 41.63945 12.02115 9753 ft 281 kts 214°
2026-05-07 16:48 41.62303 12.00650 10320 ft 292 kts 214°
2026-05-07 16:48 41.60546 11.99085 10504 ft 314 kts 214°
2026-05-07 16:49 41.58658 11.97401 10680 ft 336 kts 214°
2026-05-07 16:49 41.56684 11.95637 11192 ft 345 kts 214°
2026-05-07 16:49 41.54674 11.93845 11850 ft 349 kts 214°
2026-05-07 16:49 41.52644 11.92037 12527 ft 352 kts 214°
2026-05-07 16:50 41.50594 11.90215 13215 ft 355 kts 214°
2026-05-07 16:50 41.48525 11.88379 13877 ft 358 kts 214°
2026-05-07 16:50 41.46444 11.86538 14481 ft 360 kts 214°
2026-05-07 16:50 41.44377 11.84708 15088 ft 362 kts 215°
2026-05-07 16:51 41.42272 11.82843 15704 ft 364 kts 215°
2026-05-07 16:51 41.40265 11.80798 16313 ft 364 kts 224°
2026-05-07 16:51 41.38599 11.78255 16918 ft 365 kts 236°
2026-05-07 16:51 41.37358 11.75313 17535 ft 367 kts 246°
2026-05-07 16:52 41.36469 11.72118 18192 ft 368 kts 249°
2026-05-07 16:52 41.35607 11.68913 18737 ft 369 kts 249°
2026-05-07 16:52 41.34734 11.65683 19257 ft 372 kts 250°
2026-05-07 16:52 41.33855 11.62439 19756 ft 374 kts 250°
2026-05-07 16:53 41.32966 11.59169 20259 ft 376 kts 250°
2026-05-07 16:53 41.32072 11.55893 20755 ft 378 kts 250°
2026-05-07 16:53 41.31170 11.52591 21246 ft 380 kts 251°
2026-05-07 16:53 41.30263 11.49278 21711 ft 382 kts 251°
2026-05-07 16:54 41.29349 11.45946 22178 ft 384 kts 251°
2026-05-07 16:54 41.28441 11.42642 22634 ft 386 kts 251°
2026-05-07 16:54 41.27515 11.39272 23064 ft 388 kts 251°
2026-05-07 16:54 41.26584 11.35892 23496 ft 390 kts 252°
2026-05-07 16:55 41.25647 11.32499 23855 ft 392 kts 251°
2026-05-07 16:55 41.24705 11.29089 24228 ft 393 kts 251°
2026-05-07 16:55 41.23761 11.25673 24596 ft 394 kts 251°
2026-05-07 16:55 41.22814 11.22251 24953 ft 395 kts 251°
2026-05-07 16:56 41.21865 11.18822 25238 ft 397 kts 251°
2026-05-07 16:56 41.20912 11.15372 25561 ft 399 kts 250°
2026-05-07 16:56 41.18989 11.08438 26217 ft 401 kts 250°
2026-05-07 16:57 41.18019 11.04960 26539 ft 402 kts 250°
2026-05-07 16:57 41.17044 11.01473 26847 ft 403 kts 250°
2026-05-07 16:57 41.16070 10.97986 27150 ft 405 kts 250°
2026-05-07 16:57 41.15089 10.94473 27448 ft 406 kts 249°
2026-05-07 16:58 41.14109 10.90962 27734 ft 407 kts 249°
2026-05-07 16:58 41.13123 10.87436 28010 ft 408 kts 249°
2026-05-07 16:58 41.12134 10.83899 28289 ft 409 kts 249°
2026-05-07 16:58 41.11143 10.80362 28557 ft 410 kts 249°
2026-05-07 16:59 41.10155 10.76852 28800 ft 411 kts 249°
2026-05-07 16:59 41.09154 10.73297 29041 ft 412 kts 249°
2026-05-07 16:59 41.08150 10.69733 29273 ft 413 kts 249°
2026-05-07 16:59 41.07146 10.66179 29556 ft 412 kts 248°
2026-05-07 17:00 41.06141 10.62628 29838 ft 412 kts 248°
2026-05-07 17:00 41.05129 10.59062 30077 ft 413 kts 248°
2026-05-07 17:00 41.04121 10.55506 30363 ft 411 kts 248°
2026-05-07 17:00 41.03118 10.51981 30739 ft 406 kts 248°
2026-05-07 17:01 41.02124 10.48497 31081 ft 403 kts 248°
2026-05-07 17:01 41.01133 10.45024 31389 ft 401 kts 248°
2026-05-07 17:01 41.00152 10.41582 31691 ft 399 kts 248°
2026-05-07 17:01 40.99237 10.38119 31992 ft 398 kts 253°
2026-05-07 17:02 40.98745 10.34516 32289 ft 398 kts 262°
2026-05-07 17:02 40.98568 10.30870 32581 ft 397 kts 263°
2026-05-07 17:02 40.98396 10.27279 32881 ft 395 kts 263°
2026-05-07 17:02 40.98215 10.23652 33177 ft 393 kts 263°
2026-05-07 17:03 40.98029 10.20048 33494 ft 391 kts 263°
2026-05-07 17:03 40.97844 10.16471 33795 ft 389 kts 263°
2026-05-07 17:03 40.97664 10.12904 34067 ft 388 kts 263°
2026-05-07 17:03 40.97484 10.09359 34335 ft 385 kts 263°
2026-05-07 17:04 40.97304 10.05828 34608 ft 383 kts 263°
2026-05-07 17:04 40.97126 10.02328 34874 ft 380 kts 263°
2026-05-07 17:04 40.96949 9.98844 35140 ft 378 kts 262°
2026-05-07 17:04 40.96773 9.95386 35393 ft 375 kts 262°
2026-05-07 17:05 40.96596 9.91954 35641 ft 373 kts 262°
2026-05-07 17:05 40.96416 9.88541 35866 ft 371 kts 262°
2026-05-07 17:05 40.96051 9.81731 35980 ft 372 kts 262°
2026-05-07 17:06 40.95683 9.74840 35970 ft 377 kts 262°
2026-05-07 17:06 40.95305 9.67904 35976 ft 378 kts 262°
2026-05-07 17:07 40.94932 9.61011 35978 ft 379 kts 262°
2026-05-07 17:07 40.94551 9.54043 35975 ft 376 kts 261°
2026-05-07 17:08 40.94172 9.47205 35983 ft 374 kts 261°
2026-05-07 17:08 40.93784 9.40323 35978 ft 376 kts 261°
2026-05-07 17:09 40.93386 9.33422 35940 ft 377 kts 261°
2026-05-07 17:09 40.92986 9.26496 35938 ft 378 kts 261°
2026-05-07 17:10 40.92585 9.19552 35932 ft 379 kts 261°
2026-05-07 17:10 40.92178 9.12630 35936 ft 380 kts 261°
2026-05-07 17:11 40.91764 9.05669 35951 ft 381 kts 261°
2026-05-07 17:11 40.91347 8.98678 35936 ft 382 kts 261°
2026-05-07 17:12 40.90920 8.91658 35926 ft 383 kts 261°
2026-05-07 17:12 40.90488 8.84635 35924 ft 384 kts 261°
2026-05-07 17:13 40.90053 8.77600 35929 ft 384 kts 261°
2026-05-07 17:13 40.89611 8.70559 35942 ft 385 kts 261°
2026-05-07 17:14 40.89165 8.63496 35927 ft 386 kts 261°
2026-05-07 17:14 40.88720 8.56458 35926 ft 387 kts 261°
2026-05-07 17:15 40.88265 8.49355 35926 ft 388 kts 261°
2026-05-07 17:15 40.87799 8.42256 35935 ft 388 kts 261°
2026-05-07 17:16 40.87333 8.35143 35938 ft 389 kts 261°
2026-05-07 17:16 40.86860 8.28022 35942 ft 390 kts 261°
2026-05-07 17:17 40.86382 8.20874 35934 ft 391 kts 261°
2026-05-07 17:17 40.85902 8.13720 35937 ft 391 kts 261°
2026-05-07 17:18 40.85919 8.06484 35943 ft 397 kts 268°
2026-05-07 17:18 40.86269 7.99211 35945 ft 397 kts 268°
2026-05-07 17:19 40.86725 7.91921 35957 ft 399 kts 270°
2026-05-07 17:19 40.87276 7.84609 35955 ft 400 kts 270°
2026-05-07 17:20 40.87807 7.77297 35954 ft 400 kts 270°
2026-05-07 17:20 40.88221 7.71212 35954 ft 400 kts 269°
2026-05-07 17:21 40.88706 7.63878 35958 ft 400 kts 269°
2026-05-07 17:21 40.89191 7.56541 35985 ft 401 kts 269°
2026-05-07 17:22 40.89669 7.49201 35978 ft 401 kts 269°
2026-05-07 17:22 40.90144 7.41857 35968 ft 401 kts 269°
2026-05-07 17:23 40.90619 7.34516 35960 ft 401 kts 269°
2026-05-07 17:23 40.91089 7.27175 35963 ft 401 kts 269°
2026-05-07 17:24 40.91561 7.19879 35966 ft 401 kts 269°
2026-05-07 17:24 40.92020 7.12533 35965 ft 401 kts 269°
2026-05-07 17:25 40.92471 7.05192 35966 ft 401 kts 269°
2026-05-07 17:25 40.92921 6.97848 35963 ft 401 kts 269°
2026-05-07 17:26 40.93363 6.90508 35962 ft 401 kts 269°
2026-05-07 17:26 40.93798 6.83163 35984 ft 401 kts 268°
2026-05-07 17:27 40.94235 6.75809 35973 ft 401 kts 268°
2026-05-07 17:27 40.94672 6.68459 35971 ft 401 kts 268°
2026-05-07 17:28 40.95104 6.61101 35964 ft 401 kts 268°
2026-05-07 17:28 40.95528 6.53745 35962 ft 401 kts 268°
2026-05-07 17:29 40.95949 6.46391 35977 ft 401 kts 268°
2026-05-07 17:29 40.96370 6.39014 35960 ft 402 kts 268°
2026-05-07 17:30 40.96776 6.31674 35954 ft 403 kts 268°
2026-05-07 17:30 40.97179 6.24274 35953 ft 403 kts 268°
2026-05-07 17:31 40.97576 6.16867 35955 ft 404 kts 268°
2026-05-07 17:31 40.97972 6.09454 35956 ft 404 kts 268°
2026-05-07 17:32 40.98365 6.02026 35957 ft 405 kts 267°
2026-05-07 17:32 40.98753 5.94573 35950 ft 406 kts 267°
2026-05-07 17:33 40.99141 5.87109 35949 ft 407 kts 267°
2026-05-07 17:33 40.99528 5.79628 35951 ft 407 kts 267°
2026-05-07 17:34 40.99905 5.72139 35956 ft 408 kts 267°
2026-05-07 17:34 41.00274 5.64630 35961 ft 409 kts 267°
2026-05-07 17:35 41.00643 5.57105 35952 ft 410 kts 267°
2026-05-07 17:35 41.01017 5.49555 35951 ft 411 kts 267°
2026-05-07 17:36 41.01383 5.41991 35953 ft 412 kts 267°
2026-05-07 17:36 41.01739 5.34473 35954 ft 412 kts 267°
2026-05-07 17:37 41.02135 5.26899 35977 ft 413 kts 268°
2026-05-07 17:37 41.02542 5.19320 35975 ft 413 kts 268°
2026-05-07 17:38 41.02933 5.11735 35972 ft 413 kts 268°
2026-05-07 17:38 41.03314 5.04157 35970 ft 412 kts 268°
2026-05-07 17:39 41.03688 4.96567 35966 ft 412 kts 268°
2026-05-07 17:39 41.04062 4.88983 35982 ft 412 kts 267°
2026-05-07 17:40 41.04424 4.81453 35979 ft 413 kts 267°
2026-05-07 17:40 41.04867 4.73862 35975 ft 415 kts 270°
2026-05-07 17:41 41.05665 4.66266 35975 ft 417 kts 272°
2026-05-07 17:41 41.06583 4.58661 35972 ft 418 kts 272°
2026-05-07 17:42 41.07453 4.51052 35999 ft 418 kts 272°
2026-05-07 17:42 41.08266 4.43431 35987 ft 418 kts 271°
2026-05-07 17:43 41.09067 4.35812 35988 ft 418 kts 271°
2026-05-07 17:43 41.09870 4.28190 35984 ft 417 kts 271°
2026-05-07 17:44 41.10674 4.20564 35977 ft 417 kts 271°
2026-05-07 17:44 41.11470 4.13002 35993 ft 417 kts 272°
2026-05-07 17:45 41.12265 4.05382 35987 ft 417 kts 272°
2026-05-07 17:45 41.13050 3.97758 35981 ft 417 kts 271°
2026-05-07 17:46 41.13831 3.90130 35975 ft 417 kts 271°
2026-05-07 17:46 41.14605 3.82512 35973 ft 417 kts 271°
2026-05-07 17:47 41.15371 3.74887 36000 ft 416 kts 271°
2026-05-07 17:47 41.16141 3.67278 35990 ft 416 kts 271°
2026-05-07 17:48 41.16899 3.59678 35984 ft 415 kts 271°
2026-05-07 17:48 41.17649 3.52071 35980 ft 415 kts 271°
2026-05-07 17:49 41.18401 3.44470 35977 ft 416 kts 271°
2026-05-07 17:49 41.19146 3.36854 35977 ft 416 kts 271°
2026-05-07 17:50 41.19885 3.29249 35975 ft 415 kts 271°
2026-05-07 17:50 41.20610 3.21689 35972 ft 415 kts 271°
2026-05-07 17:51 41.21337 3.14088 35973 ft 415 kts 271°
2026-05-07 17:51 41.22062 3.06485 35972 ft 415 kts 271°
2026-05-07 17:52 41.22776 2.98867 35969 ft 416 kts 271°
2026-05-07 17:52 41.23485 2.91238 35966 ft 416 kts 271°
2026-05-07 17:53 41.24193 2.83593 35973 ft 417 kts 271°
2026-05-07 17:53 41.24907 2.75948 35973 ft 417 kts 271°
2026-05-07 17:54 41.25612 2.68297 35973 ft 417 kts 271°
2026-05-07 17:54 41.26302 2.60642 35996 ft 417 kts 271°
2026-05-07 17:55 41.26997 2.52984 35992 ft 417 kts 271°
2026-05-07 17:55 41.27686 2.45382 35987 ft 417 kts 271°
2026-05-07 17:56 41.28369 2.37664 35986 ft 417 kts 271°
2026-05-07 17:56 41.29040 2.30001 35985 ft 417 kts 271°
2026-05-07 17:57 41.29599 2.23623 35989 ft 418 kts 271°
2026-05-07 17:57 41.30373 2.14700 35975 ft 418 kts 271°
2026-05-07 17:58 41.30299 2.07096 35981 ft 408 kts 257°
2026-05-07 17:58 41.29427 1.99633 35978 ft 408 kts 257°
2026-05-07 17:59 41.28563 1.92170 35975 ft 408 kts 257°
2026-05-07 17:59 41.27699 1.84704 35997 ft 409 kts 257°
2026-05-07 18:00 41.26830 1.77233 35989 ft 409 kts 257°
2026-05-07 18:00 41.25955 1.69775 35994 ft 409 kts 257°
2026-05-07 18:01 41.25075 1.62303 35986 ft 409 kts 257°
2026-05-07 18:01 41.24190 1.54814 35983 ft 409 kts 257°
2026-05-07 18:02 41.22864 1.43655 35984 ft 410 kts 257°
2026-05-07 18:03 41.21968 1.36168 35976 ft 410 kts 257°
2026-05-07 18:03 41.21063 1.28683 35973 ft 411 kts 257°
2026-05-07 18:04 41.20155 1.21190 35976 ft 411 kts 257°
2026-05-07 18:04 41.19244 1.13712 35995 ft 410 kts 257°
2026-05-07 18:05 41.18325 1.06223 35975 ft 411 kts 257°
2026-05-07 18:05 41.17397 0.98726 35965 ft 412 kts 257°
2026-05-07 18:06 41.16467 0.91212 35959 ft 413 kts 257°
2026-05-07 18:06 41.15528 0.83691 35962 ft 413 kts 257°
2026-05-07 18:07 41.14577 0.76161 35972 ft 413 kts 257°
2026-05-07 18:07 41.13622 0.68637 35957 ft 414 kts 258°
2026-05-07 18:08 41.12668 0.61089 35943 ft 415 kts 258°
2026-05-07 18:08 41.11711 0.53524 35946 ft 416 kts 258°
2026-05-07 18:09 41.10756 0.46010 35947 ft 416 kts 258°
2026-05-07 18:09 41.09781 0.38440 35942 ft 417 kts 258°
2026-05-07 18:10 41.08800 0.30865 35952 ft 417 kts 259°
2026-05-07 18:10 41.07813 0.23293 35949 ft 417 kts 258°
2026-05-07 18:11 41.06823 0.15714 35949 ft 417 kts 259°
2026-05-07 18:11 41.05826 0.08143 35941 ft 417 kts 258°
2026-05-07 18:12 41.04818 0.00571 35946 ft 417 kts 258°
2026-05-07 18:12 41.03801 -0.06997 35950 ft 418 kts 259°
2026-05-07 18:13 41.02960 -0.13298 35949 ft 418 kts 259°
2026-05-07 18:13 41.01938 -0.20877 35947 ft 418 kts 259°
2026-05-07 18:14 41.00606 -0.29631 35945 ft 417 kts 251°
2026-05-07 18:14 40.98981 -0.35697 35950 ft 417 kts 250°
2026-05-07 18:15 40.97020 -0.42930 35946 ft 418 kts 250°
2026-05-07 18:15 40.95060 -0.50161 35950 ft 418 kts 250°
2026-05-07 18:16 40.93108 -0.57344 35950 ft 418 kts 250°
2026-05-07 18:16 40.91134 -0.64567 35957 ft 418 kts 250°
2026-05-07 18:17 40.89157 -0.71785 35952 ft 417 kts 250°
2026-05-07 18:17 40.87176 -0.78980 35980 ft 416 kts 251°
2026-05-07 18:18 40.85199 -0.86164 35986 ft 415 kts 251°
2026-05-07 18:18 40.83223 -0.93325 35994 ft 414 kts 251°
2026-05-07 18:19 40.81239 -1.00461 35989 ft 414 kts 251°
2026-05-07 18:19 40.79256 -1.07583 35992 ft 414 kts 251°
2026-05-07 18:20 40.77267 -1.14711 35990 ft 413 kts 251°
2026-05-07 18:20 40.75293 -1.21769 35995 ft 413 kts 251°
2026-05-07 18:21 40.73305 -1.28868 35999 ft 412 kts 251°
2026-05-07 18:21 40.71318 -1.35957 36000 ft 412 kts 251°
2026-05-07 18:22 40.69325 -1.43033 35996 ft 412 kts 251°
2026-05-07 18:22 40.67329 -1.50097 35994 ft 412 kts 251°
2026-05-07 18:23 40.65327 -1.57162 35991 ft 411 kts 252°
2026-05-07 18:23 40.63329 -1.64211 35996 ft 410 kts 252°
2026-05-07 18:24 40.61329 -1.71236 35989 ft 410 kts 252°
2026-05-07 18:24 40.59331 -1.78215 35989 ft 410 kts 252°
2026-05-07 18:25 40.57319 -1.85235 35982 ft 410 kts 252°
2026-05-07 18:25 40.55308 -1.92249 35977 ft 410 kts 252°
2026-05-07 18:26 40.53289 -1.99257 35982 ft 409 kts 252°
2026-05-07 18:26 40.51268 -2.06251 35987 ft 409 kts 252°
2026-05-07 18:27 40.49250 -2.13232 35987 ft 409 kts 252°
2026-05-07 18:27 40.47229 -2.20206 35979 ft 408 kts 252°
2026-05-07 18:28 40.45208 -2.27123 35962 ft 408 kts 252°
2026-05-07 18:28 40.43164 -2.34112 35965 ft 406 kts 253°
2026-05-07 18:29 40.41157 -2.40975 35984 ft 405 kts 253°
2026-05-07 18:29 40.39136 -2.47854 35982 ft 403 kts 253°
2026-05-07 18:30 40.37141 -2.54722 35976 ft 401 kts 257°
2026-05-07 18:30 40.35623 -2.61727 35969 ft 399 kts 258°
2026-05-07 18:31 40.34105 -2.68730 35953 ft 399 kts 258°
2026-05-07 18:31 40.32589 -2.75708 35959 ft 398 kts 258°
2026-05-07 18:32 40.31074 -2.82676 35964 ft 397 kts 258°
2026-05-07 18:32 40.29555 -2.89626 35965 ft 396 kts 258°
2026-05-07 18:33 40.28032 -2.96562 35943 ft 396 kts 258°
2026-05-07 18:33 40.26512 -3.03450 35952 ft 396 kts 258°
2026-05-07 18:34 40.24986 -3.10363 35956 ft 394 kts 258°
2026-05-07 18:34 40.23458 -3.17243 35959 ft 392 kts 258°
2026-05-07 18:35 40.21932 -3.24089 35958 ft 391 kts 258°
2026-05-07 18:35 40.20415 -3.30915 35933 ft 390 kts 258°
2026-05-07 18:36 40.18899 -3.37705 35943 ft 389 kts 258°
2026-05-07 18:36 40.17388 -3.44448 35931 ft 388 kts 257°
2026-05-07 18:37 40.15907 -3.51047 35932 ft 387 kts 257°
2026-05-07 18:37 40.14414 -3.57685 35933 ft 387 kts 257°
2026-05-07 18:38 40.12889 -3.64422 35929 ft 387 kts 257°
2026-05-07 18:38 40.11363 -3.71156 35929 ft 386 kts 257°
2026-05-07 18:39 40.09844 -3.77847 35931 ft 386 kts 257°
2026-05-07 18:39 40.08306 -3.84573 35912 ft 386 kts 257°
2026-05-07 18:40 40.06771 -3.91291 35913 ft 386 kts 257°
2026-05-07 18:40 40.05228 -3.98007 35916 ft 386 kts 257°
2026-05-07 18:41 40.03681 -4.04711 35914 ft 386 kts 257°
2026-05-07 18:41 40.02131 -4.11416 35915 ft 386 kts 257°
2026-05-07 18:42 40.00577 -4.18109 35910 ft 386 kts 257°
2026-05-07 18:42 39.99020 -4.24806 35909 ft 386 kts 257°
2026-05-07 18:43 39.97461 -4.31500 35899 ft 386 kts 257°
2026-05-07 18:43 39.95958 -4.38207 35901 ft 385 kts 258°
2026-05-07 18:44 39.94623 -4.44920 35905 ft 385 kts 259°
2026-05-07 18:44 39.93293 -4.51680 35880 ft 384 kts 259°
2026-05-07 18:45 39.91929 -4.58405 35872 ft 385 kts 258°
2026-05-07 18:45 39.90547 -4.65144 35886 ft 384 kts 258°
2026-05-07 18:46 39.89169 -4.71859 35894 ft 384 kts 258°
2026-05-07 18:46 39.87799 -4.78522 35894 ft 383 kts 258°
2026-05-07 18:47 39.86413 -4.85227 35893 ft 383 kts 258°
2026-05-07 18:47 39.85025 -4.91931 35892 ft 384 kts 258°
2026-05-07 18:48 39.83631 -4.98630 35903 ft 384 kts 258°
2026-05-07 18:48 39.82237 -5.05330 35888 ft 383 kts 258°
2026-05-07 18:49 39.80838 -5.12014 35888 ft 383 kts 257°
2026-05-07 18:49 39.79434 -5.18692 35885 ft 383 kts 257°
2026-05-07 18:50 39.78028 -5.25359 35886 ft 383 kts 257°
2026-05-07 18:50 39.76626 -5.31999 35887 ft 383 kts 257°
2026-05-07 18:51 39.75218 -5.38668 35879 ft 382 kts 257°
2026-05-07 18:51 39.73804 -5.45323 35887 ft 382 kts 257°
2026-05-07 18:52 39.72384 -5.51970 35885 ft 381 kts 257°
2026-05-07 18:52 39.70970 -5.58604 35881 ft 381 kts 257°
2026-05-07 18:53 39.69550 -5.65234 35878 ft 381 kts 257°
2026-05-07 18:53 39.68131 -5.71814 35868 ft 381 kts 256°
2026-05-07 18:54 39.66697 -5.78432 35869 ft 381 kts 256°
2026-05-07 18:54 39.65268 -5.85048 35847 ft 380 kts 256°
2026-05-07 18:55 39.63839 -5.91655 35866 ft 380 kts 256°
2026-05-07 18:55 39.62403 -5.98251 35871 ft 380 kts 256°
2026-05-07 18:56 39.60962 -6.04846 35875 ft 379 kts 256°
2026-05-07 18:56 39.59522 -6.11424 35866 ft 379 kts 255°
2026-05-07 18:57 39.58082 -6.17945 35863 ft 379 kts 255°
2026-05-07 18:57 39.56396 -6.24402 35854 ft 380 kts 247°
2026-05-07 18:58 39.54163 -6.30601 35854 ft 380 kts 247°
2026-05-07 18:58 39.51920 -6.36797 35852 ft 380 kts 247°
2026-05-07 18:59 39.49681 -6.42975 35853 ft 380 kts 247°
2026-05-07 18:59 39.47432 -6.49154 35850 ft 380 kts 246°
2026-05-07 19:00 39.45171 -6.55340 35849 ft 380 kts 246°
2026-05-07 19:00 39.42913 -6.61516 35849 ft 380 kts 246°
2026-05-07 19:01 39.40664 -6.67691 35851 ft 379 kts 246°
2026-05-07 19:01 39.38402 -6.73857 35828 ft 380 kts 246°
2026-05-07 19:02 39.36150 -6.79977 35841 ft 379 kts 246°
2026-05-07 19:02 39.33873 -6.86173 35855 ft 379 kts 245°
2026-05-07 19:03 39.31620 -6.92283 35857 ft 379 kts 245°
2026-05-07 19:03 39.29355 -6.98416 35856 ft 379 kts 245°
2026-05-07 19:04 39.26957 -7.04475 35865 ft 379 kts 242°
2026-05-07 19:04 39.24361 -7.10394 35865 ft 379 kts 242°
2026-05-07 19:05 39.21749 -7.16303 35874 ft 379 kts 242°
2026-05-07 19:05 39.19185 -7.22204 35887 ft 379 kts 241°
2026-05-07 19:06 39.16624 -7.28143 35885 ft 379 kts 242°
2026-05-07 19:06 39.12773 -7.37064 35892 ft 380 kts 242°
2026-05-07 19:07 39.10194 -7.43001 35874 ft 380 kts 241°
2026-05-07 19:07 39.07608 -7.48933 35889 ft 380 kts 241°
2026-05-07 19:08 39.05024 -7.54856 35726 ft 378 kts 241°
2026-05-07 19:08 39.03740 -7.57799 34997 ft 378 kts 241°
2026-05-07 19:08 39.02886 -7.59757 34463 ft 381 kts 241°
2026-05-07 19:09 39.01579 -7.62749 33555 ft 386 kts 241°
2026-05-07 19:09 39.00254 -7.65779 32510 ft 392 kts 240°
2026-05-07 19:09 38.98907 -7.68852 31607 ft 396 kts 240°
2026-05-07 19:09 38.97118 -7.72921 30672 ft 395 kts 240°
2026-05-07 19:10 38.95768 -7.75996 29993 ft 395 kts 241°
2026-05-07 19:10 38.94857 -7.78074 29501 ft 394 kts 241°
2026-05-07 19:10 38.93519 -7.81125 28838 ft 392 kts 240°
2026-05-07 19:10 38.92184 -7.84165 28224 ft 388 kts 240°
2026-05-07 19:11 38.90862 -7.87162 27650 ft 385 kts 240°
2026-05-07 19:11 38.89545 -7.90143 27069 ft 382 kts 240°
2026-05-07 19:11 38.88240 -7.93094 26508 ft 378 kts 240°
2026-05-07 19:11 38.86946 -7.96018 25956 ft 375 kts 240°
2026-05-07 19:12 38.85682 -7.98874 25425 ft 372 kts 240°
2026-05-07 19:12 38.84409 -8.01754 24898 ft 369 kts 239°
2026-05-07 19:12 38.83145 -8.04606 24374 ft 368 kts 239°
2026-05-07 19:12 38.81883 -8.07454 23863 ft 365 kts 239°
2026-05-07 19:13 38.80629 -8.10274 23351 ft 363 kts 239°
2026-05-07 19:13 38.79379 -8.13082 22790 ft 361 kts 239°
2026-05-07 19:13 38.78139 -8.15865 22242 ft 359 kts 239°
2026-05-07 19:13 38.76902 -8.18640 21713 ft 357 kts 239°
2026-05-07 19:14 38.75672 -8.21402 21194 ft 356 kts 239°
2026-05-07 19:14 38.74449 -8.24154 20681 ft 354 kts 239°
2026-05-07 19:14 38.73232 -8.26888 20164 ft 353 kts 239°
2026-05-07 19:14 38.72019 -8.29609 19674 ft 351 kts 238°
2026-05-07 19:15 38.70810 -8.32315 19196 ft 350 kts 238°
2026-05-07 19:15 38.69602 -8.35018 18744 ft 348 kts 238°
2026-05-07 19:15 38.68401 -8.37697 18291 ft 347 kts 238°
2026-05-07 19:15 38.67200 -8.40370 17786 ft 345 kts 238°
2026-05-07 19:16 38.66006 -8.43026 17222 ft 344 kts 238°
2026-05-07 19:16 38.64794 -8.45723 16386 ft 353 kts 238°
2026-05-07 19:16 38.63593 -8.48396 16236 ft 340 kts 238°
2026-05-07 19:16 38.62456 -8.50929 16106 ft 318 kts 238°
2026-05-07 19:17 38.61381 -8.53324 15814 ft 303 kts 238°
2026-05-07 19:17 38.60342 -8.55637 15298 ft 298 kts 237°
2026-05-07 19:17 38.59312 -8.57920 14731 ft 295 kts 237°
2026-05-07 19:17 38.58284 -8.60191 14273 ft 294 kts 237°
2026-05-07 19:18 38.57261 -8.62451 13867 ft 293 kts 237°
2026-05-07 19:18 38.56245 -8.64698 13549 ft 291 kts 237°
2026-05-07 19:18 38.55237 -8.66927 13196 ft 289 kts 237°
2026-05-07 19:18 38.54232 -8.69147 12830 ft 288 kts 237°
2026-05-07 19:19 38.53233 -8.71355 12456 ft 287 kts 237°
2026-05-07 19:19 38.52237 -8.73558 12109 ft 285 kts 237°
2026-05-07 19:19 38.51248 -8.75746 11737 ft 283 kts 237°
2026-05-07 19:19 38.50313 -8.77945 11104 ft 283 kts 245°
2026-05-07 19:20 38.49949 -8.80411 10466 ft 287 kts 269°
2026-05-07 19:20 38.50354 -8.82908 10096 ft 289 kts 283°
2026-05-07 19:20 38.50915 -8.85380 10024 ft 286 kts 282°
2026-05-07 19:20 38.51434 -8.87735 9875 ft 266 kts 282°
2026-05-07 19:21 38.51921 -8.89975 9448 ft 258 kts 281°
2026-05-07 19:21 38.52392 -8.92169 8931 ft 254 kts 281°
2026-05-07 19:21 38.52858 -8.94344 8341 ft 255 kts 282°
2026-05-07 19:21 38.53322 -8.96481 7830 ft 251 kts 282°
2026-05-07 19:22 38.53786 -8.98604 7364 ft 246 kts 282°
2026-05-07 19:22 38.54244 -9.00699 6914 ft 242 kts 282°
2026-05-07 19:22 38.54690 -9.02754 6436 ft 239 kts 281°
2026-05-07 19:22 38.55119 -9.04795 5985 ft 235 kts 281°
2026-05-07 19:23 38.55499 -9.06725 5670 ft 214 kts 281°
2026-05-07 19:23 38.55855 -9.08501 5300 ft 200 kts 282°
2026-05-07 19:23 38.56217 -9.10157 4964 ft 187 kts 284°
2026-05-07 19:23 38.56581 -9.11726 4704 ft 182 kts 285°
2026-05-07 19:24 38.56934 -9.13244 4510 ft 174 kts 285°
2026-05-07 19:24 38.57269 -9.14722 4178 ft 175 kts 284°
2026-05-07 19:24 38.57583 -9.16213 3996 ft 170 kts 284°
2026-05-07 19:24 38.57905 -9.17708 4052 ft 177 kts 285°
2026-05-07 19:25 38.58237 -9.19249 4038 ft 181 kts 285°
2026-05-07 19:25 38.58767 -9.20652 3914 ft 172 kts 306°
2026-05-07 19:25 38.59636 -9.21631 3756 ft 160 kts 326°
2026-05-07 19:25 38.60614 -9.22105 3705 ft 145 kts 343°
2026-05-07 19:26 38.61603 -9.22210 3546 ft 143 kts 359°
2026-05-07 19:26 38.62582 -9.21933 3387 ft 148 kts 19°
2026-05-07 19:26 38.63523 -9.21403 3202 ft 148 kts 19°
2026-05-07 19:26 38.64464 -9.20879 2974 ft 147 kts 17°
2026-05-07 19:27 38.65392 -9.20386 2786 ft 142 kts 18°
2026-05-07 19:27 38.66304 -9.19903 2577 ft 142 kts 17°
2026-05-07 19:27 38.67219 -9.19423 2376 ft 141 kts 17°
2026-05-07 19:27 38.68130 -9.18957 2204 ft 141 kts 17°
2026-05-07 19:28 38.69030 -9.18458 1996 ft 140 kts 15°
2026-05-07 19:28 38.69907 -9.17987 1806 ft 137 kts 16°
2026-05-07 19:28 38.70788 -9.17522 1611 ft 138 kts 19°
2026-05-07 19:28 38.71678 -9.17047 1436 ft 139 kts 18°
2026-05-07 19:29 38.72577 -9.16562 1255 ft 142 kts 17°
2026-05-07 19:29 38.73507 -9.16069 1022 ft 147 kts 18°
2026-05-07 19:29 38.74444 -9.15560 838 ft 147 kts 17°
2026-05-07 19:29 38.75369 -9.15063 641 ft 141 kts 17°
2026-05-07 19:30 38.76262 -9.14590 470 ft 138 kts 16°
2026-05-07 19:30 38.77136 -9.14126 361 ft 126 kts 22°
2026-05-07 19:30 38.77803 -9.13772 357 ft 79 kts 22°
2026-05-07 19:30 38.78153 -9.13580 359 ft 32 kts 24°
2026-05-07 19:31 38.78328 -9.13411 356 ft 30 kts 46°
2026-05-07 19:31 38.78378 -9.13322 353 ft 7 kts 82°
2026-05-07 19:31 38.78355 -9.13271 358 ft 6 kts 146°
2026-05-07 19:31 38.78315 -9.13270 354 ft 5 kts 195°
2026-05-07 19:32 38.78283 -9.13285 356 ft 4 kts 202°
2026-05-07 19:32 38.78257 -9.13298 358 ft 4 kts 202°
2026-05-07 19:32 38.78237 -9.13309 355 ft 3 kts 202°
2026-05-07 19:32 38.78220 -9.13318 352 ft 3 kts 202°
2026-05-07 19:33 38.78170 -9.13345 354 ft 12 kts 202°
2026-05-07 19:33 38.78079 -9.13393 352 ft 14 kts 202°
2026-05-07 19:33 38.77993 -9.13438 354 ft 12 kts 202°
2026-05-07 19:33 38.77934 -9.13470 353 ft 8 kts 202°
2026-05-07 19:34 38.77888 -9.13495 358 ft 7 kts 202°
2026-05-07 19:34 38.77838 -9.13522 354 ft 10 kts 203°
2026-05-07 19:34 38.77760 -9.13564 358 ft 14 kts 202°
2026-05-07 19:34 38.77680 -9.13602 359 ft 10 kts 188°
2026-05-07 19:35 38.77592 -9.13582 351 ft 16 kts 168°
2026-05-07 19:35 38.77463 -9.13548 351 ft 21 kts 167°
2026-05-07 19:35 38.77321 -9.13508 351 ft 20 kts 168°
2026-05-07 19:35 38.77182 -9.13474 351 ft 21 kts 169°
2026-05-07 19:36 38.77039 -9.13432 354 ft 22 kts 166°
2026-05-07 19:36 38.76887 -9.13395 352 ft 23 kts 171°
2026-05-07 19:36 38.76775 -9.13364 352 ft 11 kts 174°
2026-05-07 19:36 38.76711 -9.13412 359 ft 11 kts 219°
2026-05-07 19:37 38.76650 -9.13468 355 ft 8 kts 214°
2026-05-07 19:37 38.76642 -9.13538 356 ft 9 kts 268°
2026-05-07 19:37 38.76633 -9.13627 351 ft 11 kts 259°
2026-05-07 19:37 38.76601 -9.13673 354 ft 6 kts 179°
2026-05-07 19:38 38.76564 -9.13649 353 ft 6 kts 129°
2026-05-07 19:38 38.76541 -9.13610 355 ft 5 kts 127°
2026-05-07 19:38 38.76512 -9.13592 355 ft 4 kts 172°
2026-05-07 19:38 38.76490 -9.13587 351 ft 0 kts 168°